[[{"header":{"parameterUnit":"m.s-1","parameterCategory":1,"la1":30.2991,"la2":30.254,"lo1":-89.0895,"lo2":-89.0444,"dy":0.0017,"dx":0.0017,"nx":28,"ny":28,"refTime":"2024-05-21T21:00:00:Z","depth":0,"parameterNumber":2,"parameterNumberName":"U-component_of_WINDS"},"data":[0,0,0,0,0,0,0,0,0,0,0,0,0,0,0,0,0,0,0,0,0,0,0,0,0,0,0,0,0,0,0,0,0,0,0,0,0,0,0,0,0,0,0,0,0,0,0,0,0,0,0,0,0,0,0,0,0,0,-2.4729,-2.473,0,-2.4826,-2.4828,-2.4829,-2.4835,-2.4834,-2.4833,-2.4832,-2.4933,-2.4937,-2.494,0,0,0,0,0,0,0,0,0,0,0,0,0,-2.4551,-2.4554,-2.4729,-2.473,-2.4731,-2.4826,-2.4828,-2.4829,-2.4835,-2.4834,-2.4832,-2.4831,-2.4932,-2.4936,-2.4941,0,0,0,0,0,0,0,0,0,0,0,0,0,-2.4637,-2.4555,-2.4729,-2.4746,-2.4748,-2.4826,-2.4828,-2.4829,-2.4835,-2.4834,-2.4832,-2.483,-2.493,-2.4936,-2.4941,-2.5009,0,0,-2.4958,-2.4961,0,0,0,0,0,0,0,0,-2.4632,-2.4643,-2.4742,-2.4745,-2.4748,-2.4817,-2.4802,-2.489,-2.4836,-2.4802,-2.4832,-2.483,-2.4896,-2.4904,-2.4926,-2.5014,-2.5018,-2.4959,-2.4962,-2.4965,-2.4966,0,0,0,0,0,0,0,-2.4626,-2.4639,-2.4768,-2.4744,-2.4747,-2.475,-2.476,-2.4819,-2.4857,-2.4805,-2.4806,-2.4817,-2.4897,-2.4921,-2.4928,-2.502,-2.4959,-2.4964,-2.4967,-2.4969,-2.517,-2.5172,0,0,0,0,0,0,-2.4616,-2.4634,-2.4764,-2.4771,-2.4684,-2.4754,-2.4766,-2.4796,-2.4857,-2.4864,-2.4818,-2.4817,-2.4912,-2.4922,-2.4932,-2.5016,-2.4965,-2.497,-2.4973,-2.5168,-2.517,-2.5172,0,0,0,0,0,0,-2.4612,-2.4628,-2.4761,-2.4703,-2.472,-2.4759,-2.4793,-2.4799,-2.4823,-2.4867,-2.4874,-2.4835,-2.4911,-2.4924,-2.499,-2.5019,-2.4972,-2.4977,-2.5165,-2.5168,-2.5171,-2.5184,0,0,0,0,0,0,-2.4607,-2.4626,-2.4652,-2.4703,-2.4723,-2.4816,-2.4795,-2.4802,-2.4832,-2.4831,-2.4884,-2.4892,-2.4911,-2.4982,-2.4996,-2.5026,-2.4982,-2.5163,-2.5167,-2.517,-2.5181,-2.5187,-2.5192,0,0,0,0,0,-2.4601,-2.4651,-2.4653,-2.4669,-2.4755,-2.4818,-2.4829,-2.4849,-2.4834,-2.4861,-2.4889,-2.489,-2.5014,-2.4988,-2.5004,-2.5037,-2.5161,-2.5166,-2.517,-2.5178,-2.5185,-2.5192,0,0,0,0,0,0,-2.4602,-2.4658,-2.466,-2.4729,-2.4768,-2.4818,-2.4852,-2.4856,-2.4901,-2.4898,-2.4923,-2.4935,-2.5,-2.5025,-2.4995,-2.5107,-2.5086,-2.5094,-2.5087,-2.5094,-2.51,-2.5092,-2.4986,0,0,0,0,0,-2.4611,-2.4656,-2.4703,-2.4759,-2.4779,-2.4812,-2.484,-2.4853,-2.4895,-2.4912,-2.4945,-2.4986,-2.5035,-2.5066,-2.5113,-2.5185,-2.5197,-2.5216,-2.5221,-2.5226,-2.5232,-2.5272,-2.5281,-2.5187,-2.5187,-2.5187,0,0,-2.4628,-2.4665,-2.4692,-2.476,-2.4792,-2.484,-2.4826,-2.4876,-2.4912,-2.4919,-2.4983,-2.501,-2.5058,-2.5127,-2.5159,-2.515,-2.5261,-2.5231,-2.5234,-2.5238,-2.5278,-2.5287,-2.5295,-2.519,-2.5189,-2.5189,0,0,-2.4684,-2.4716,-2.4766,-2.4799,-2.4848,-2.487,-2.4882,-2.4933,-2.495,-2.5015,-2.5022,-2.5065,-2.5148,-2.5182,-2.5211,-2.5282,-2.5285,-2.5297,-2.5325,-2.5365,-2.5372,-2.5379,-2.5405,-2.5413,-2.5304,-2.5304,-2.5304,0,-2.47,-2.4771,-2.4792,-2.4843,-2.4873,-2.4882,-2.4934,-2.4965,-2.5027,-2.5048,-2.5038,-2.5143,-2.5176,-2.5254,-2.5271,-2.5294,-2.5309,-2.529,-2.5369,-2.5376,-2.5383,-2.5408,-2.5417,-2.5305,-2.5305,-2.5304,-2.5304,0,-2.4788,-2.4837,-2.4872,-2.4931,-2.4966,-2.5017,-2.5047,-2.508,-2.509,-2.5114,-2.5181,-2.5221,-2.5277,-2.5297,-2.5307,-2.5377,-2.537,-2.5364,-2.5344,-2.5393,-2.5416,-2.5426,-2.5306,-2.5306,-2.5306,-2.5305,0,0,-2.4845,-2.4917,-2.4929,-2.4957,-2.5012,-2.5051,-2.5104,-2.5158,-2.5186,-2.523,-2.5274,-2.5346,-2.5341,-2.5373,-2.5388,-2.5423,-2.5478,-2.5413,-2.5415,-2.5423,-2.5557,-2.5561,-2.5571,-2.548,-2.5482,-2.5484,-2.5553,0,-2.4907,-2.4999,-2.5021,-2.51,-2.5146,-2.5157,-2.5203,-2.5243,-2.5267,-2.5311,-2.5339,-2.5388,-2.5378,-2.5398,-2.5433,-2.5463,-2.5505,-2.5459,-2.5523,-2.5525,-2.5509,-2.5584,-2.5587,-2.565,-2.5563,-2.5564,-2.5565,0,-2.4991,-2.5036,-2.5119,-2.517,-2.519,-2.5231,-2.5283,-2.5325,-2.5371,-2.5387,-2.5423,-2.5435,-2.5492,-2.547,-2.5548,-2.5517,-2.5545,-2.5564,-2.5567,-2.5573,-2.5547,-2.5591,-2.5671,-2.568,-2.558,-2.5579,-2.5578,0,-2.5024,-2.5106,-2.5166,-2.519,-2.525,-2.5279,-2.5306,-2.535,-2.5382,-2.5429,-2.545,-2.5502,-2.5531,-2.5572,-2.5599,-2.558,-2.5675,-2.5656,-2.569,-2.569,-2.5708,-2.5707,-2.5794,-2.5728,-2.5728,-2.5728,-2.5727,0,-2.509,-2.5141,-2.5182,-2.5219,-2.5277,-2.5303,-2.536,-2.5387,-2.5427,-2.5471,-2.5484,-2.5525,-2.5558,-2.5604,-2.5626,-2.5688,-2.5701,-2.5715,-2.572,-2.5714,-2.5712,-2.5731,-2.5727,-2.573,-2.573,-2.5729,-2.5729,0,-2.5136,-2.5166,-2.5233,-2.5285,-2.53,-2.534,-2.5386,-2.5423,-2.5449,-2.5504,-2.5519,-2.5559,-2.5614,-2.5645,-2.5714,-2.5729,-2.5798,-2.5801,-2.5782,-2.5784,-2.5817,-2.5813,-2.5918,-2.5934,-2.5858,-2.5859,-2.586,0,-2.5176,-2.5215,-2.5272,-2.5302,-2.5329,-2.5377,-2.541,-2.5438,-2.5471,-2.5528,-2.5559,-2.5615,-2.566,-2.5748,-2.5785,-2.5838,-2.5842,-2.5876,-2.585,-2.5843,-2.5843,-2.584,-2.5844,-2.588,-2.588,-2.5881,-2.5881,0,-2.5243,-2.5256,-2.5302,-2.5354,-2.5393,-2.5435,-2.5477,-2.5501,-2.5536,-2.5574,-2.563,-2.5665,-2.5737,-2.5792,-2.5849,-2.5878,-2.5886,-2.5889,-2.59,-2.5893,-2.588,-2.5888,-2.5793,-2.5886,-2.5886,-2.5885,-2.5885,-2.5885,-2.5287,-2.5323,-2.5369,-2.542,-2.5455,-2.5494,-2.5532,-2.5563,-2.561,-2.5669,-2.5683,-2.5742,-2.579,-2.5867,-2.5898,-2.5945,-2.5939,-2.5955,-2.5959,-2.5962,-2.5963,-2.5874,-2.5956,-2.5956,-2.5956,-2.5956,-2.5956,0,-2.5355,-2.5386,-2.5432,-2.5491,-2.5532,-2.5535,-2.5583,-2.5617,-2.5668,-2.5711,-2.5757,-2.5822,-2.5877,-2.5918,-2.5974,-2.6004,-2.6009,-2.6018,-2.6016,-2.6022,-2.5965,-2.595,-2.6013,-2.6013,-2.6013,-2.6013,-2.6013,-2.6013,-2.5395,-2.5456,-2.5475,-2.5554,-2.5584,-2.5642,-2.5668,-2.5705,-2.574,-2.5812,-2.5857,-2.5883,-2.5926,-2.5986,-2.6037,-2.6048,-2.6068,-2.6076,-2.6087,-2.6033,-2.6026,-2.602,-2.6006,-2.608,-2.608,-2.614,-2.6141,-2.6141]},{"header":{"parameterUnit":"m.s-1","parameterCategory":1,"la1":30.2991,"la2":30.254,"lo1":-89.0895,"lo2":-89.0444,"dy":0.0017,"dx":0.0017,"nx":28,"ny":28,"refTime":"2024-05-21T21:00:00:Z","depth":0,"parameterNumber":3,"parameterNumberName":"V-component_of_WINDS"},"data":[0,0,0,0,0,0,0,0,0,0,0,0,0,0,0,0,0,0,0,0,0,0,0,0,0,0,0,0,0,0,0,0,0,0,0,0,0,0,0,0,0,0,0,0,0,0,0,0,0,0,0,0,0,0,0,0,0,0,4.3886,4.3886,0,4.392,4.3921,4.3921,4.3895,4.3894,4.3893,4.3892,4.3924,4.3926,4.3927,0,0,0,0,0,0,0,0,0,0,0,0,0,4.3793,4.3795,4.3886,4.3886,4.3886,4.392,4.3921,4.3921,4.3895,4.3894,4.3892,4.3891,4.3923,4.3925,4.3928,0,0,0,0,0,0,0,0,0,0,0,0,0,4.3831,4.3796,4.3885,4.3878,4.3877,4.392,4.3921,4.3921,4.3895,4.3894,4.3892,4.389,4.3922,4.3925,4.3928,4.398,0,0,4.3937,4.3938,0,0,0,0,0,0,0,0,4.3829,4.3835,4.3878,4.3878,4.3878,4.3902,4.39,4.3941,4.3896,4.3888,4.3891,4.389,4.3917,4.3921,4.3931,4.3981,4.3982,4.3937,4.3939,4.394,4.3941,0,0,0,0,0,0,0,4.3826,4.3833,4.3899,4.3879,4.3879,4.3871,4.3875,4.3908,4.3912,4.3889,4.3887,4.3892,4.3917,4.3928,4.3931,4.3983,4.3937,4.3939,4.3941,4.3942,4.4078,4.408,0,0,0,0,0,0,4.3825,4.3831,4.3898,4.39,4.3849,4.3874,4.3878,4.3896,4.3911,4.3912,4.3893,4.389,4.3924,4.3928,4.3932,4.3994,4.394,4.3943,4.3944,4.4076,4.4078,4.408,0,0,0,0,0,0,4.3823,4.3831,4.3897,4.3865,4.3873,4.3878,4.3897,4.3897,4.3908,4.3915,4.3915,4.3904,4.3923,4.3928,4.3968,4.3995,4.3944,4.3946,4.4074,4.4077,4.4079,4.4118,0,0,0,0,0,0,4.3821,4.3831,4.3851,4.3866,4.3875,4.3933,4.3899,4.3899,4.3914,4.391,4.3925,4.3926,4.3922,4.3964,4.3971,4.3998,4.3949,4.4071,4.4075,4.4078,4.4115,4.4122,4.4129,0,0,0,0,0,4.3817,4.386,4.3852,4.3861,4.3901,4.3935,4.394,4.3936,4.3916,4.3936,4.394,4.3925,4.3991,4.3969,4.3976,4.4004,4.407,4.4074,4.4078,4.4112,4.4121,4.4128,0,0,0,0,0,0,4.3847,4.3862,4.3853,4.3902,4.3918,4.393,4.3955,4.3945,4.3966,4.3962,4.3954,4.3958,4.4,4.4006,4.3981,4.4055,4.4027,4.4033,4.405,4.4059,4.4066,4.4063,4.3951,0,0,0,0,0,4.3859,4.3887,4.3898,4.394,4.3948,4.3951,4.3965,4.3961,4.3976,4.3982,4.3989,4.4004,4.4028,4.4043,4.4066,4.4116,4.4118,4.4139,4.4146,4.4151,4.4156,4.4183,4.4193,4.4094,4.4094,4.4094,0,0,4.3885,4.3896,4.3914,4.3946,4.3957,4.3986,4.3956,4.3987,4.4007,4.3986,4.4025,4.4031,4.4046,4.4092,4.4112,4.4098,4.4184,4.4157,4.4161,4.4163,4.4189,4.4198,4.4206,4.4097,4.4096,4.4096,0,0,4.3945,4.3957,4.3994,4.4006,4.4024,4.4026,4.4035,4.4049,4.4053,4.4092,4.4077,4.41,4.4142,4.4154,4.4165,4.4231,4.4218,4.4239,4.4275,4.4301,4.4309,4.4316,4.434,4.4348,4.4244,4.4244,4.4244,0,4.3974,4.4017,4.4013,4.4046,4.406,4.4044,4.408,4.4092,4.4116,4.4126,4.411,4.4163,4.4172,4.422,4.4236,4.4246,4.4255,4.4237,4.4308,4.4315,4.4321,4.4344,4.4353,4.4246,4.4246,4.4246,4.4245,0,4.4052,4.4082,4.4109,4.4134,4.4152,4.4186,4.4186,4.4204,4.4199,4.4202,4.4241,4.4252,4.4277,4.4288,4.4282,4.4335,4.4326,4.431,4.4281,4.4333,4.4355,4.4363,4.425,4.4249,4.4248,4.4247,0,0,4.4132,4.4155,4.4165,4.4177,4.4196,4.4219,4.4252,4.4277,4.4293,4.431,4.4337,4.4373,4.4358,4.4371,4.4367,4.439,4.4442,4.437,4.4371,4.4384,4.4502,4.4514,4.4524,4.4434,4.4435,4.4436,4.4501,0,4.4194,4.4253,4.4251,4.4306,4.4334,4.4319,4.4348,4.4362,4.4366,4.4389,4.4392,4.4418,4.4396,4.4404,4.4427,4.4431,4.4466,4.4426,4.4458,4.446,4.4455,4.4535,4.4549,4.4609,4.4509,4.451,4.4511,0,4.4274,4.4296,4.4354,4.437,4.4381,4.4408,4.4431,4.4453,4.4469,4.447,4.4485,4.4477,4.451,4.4481,4.4526,4.4499,4.4512,4.4516,4.4518,4.4521,4.4489,4.4541,4.4628,4.4637,4.4524,4.4523,4.4522,0,4.4327,4.437,4.4411,4.4421,4.4441,4.446,4.4468,4.4483,4.4498,4.4518,4.4528,4.4551,4.4564,4.4581,4.4579,4.4558,4.4625,4.4595,4.4626,4.4627,4.4641,4.464,4.4732,4.4649,4.4649,4.4649,4.4649,0,4.4397,4.4433,4.4435,4.446,4.45,4.4497,4.4536,4.4543,4.4556,4.4581,4.4569,4.4593,4.4589,4.4613,4.4611,4.4649,4.4654,4.4656,4.4655,4.4657,4.4657,4.4665,4.4661,4.4651,4.4651,4.465,4.465,0,4.4463,4.4466,4.4509,4.4524,4.4529,4.4558,4.457,4.4594,4.4597,4.4629,4.4636,4.4641,4.4668,4.4668,4.4698,4.4697,4.4744,4.4738,4.4739,4.4738,4.4769,4.4766,4.4869,4.4882,4.4791,4.4792,4.4793,0,4.4507,4.4535,4.4553,4.457,4.4581,4.4608,4.4624,4.4621,4.4639,4.4659,4.468,4.4707,4.4728,4.4772,4.4777,4.4801,4.4795,4.483,4.4799,4.48,4.4796,4.4795,4.4797,4.4836,4.4837,4.4838,4.4838,0,4.4586,4.4586,4.4611,4.4636,4.4656,4.4675,4.4693,4.4707,4.4707,4.4727,4.4755,4.4772,4.4804,4.483,4.4853,4.486,4.485,4.4848,4.4857,4.4859,4.4859,4.486,4.4756,4.4846,4.4845,4.4845,4.4844,4.4844,4.4642,4.4667,4.4684,4.4712,4.4725,4.4742,4.4765,4.4772,4.4796,4.4823,4.4819,4.4851,4.4866,4.4896,4.4906,4.493,4.4918,4.493,4.4933,4.4936,4.494,4.4855,4.4934,4.4934,4.4934,4.4934,4.4933,0,4.4721,4.4731,4.4757,4.4783,4.4805,4.4794,4.4813,4.4832,4.486,4.4876,4.4897,4.493,4.4956,4.4963,4.4988,4.5006,4.5002,4.5013,4.5011,4.5013,4.4949,4.494,4.5016,4.5016,4.5016,4.5016,4.5016,4.5016,4.4764,4.4805,4.4807,4.4854,4.4864,4.4897,4.4909,4.4924,4.4937,4.4974,4.4996,4.5001,4.5014,4.5039,4.5062,4.5064,4.5073,4.5086,4.5086,4.5026,4.5018,4.501,4.5001,4.5089,4.5089,4.5148,4.5148,4.5149]}]]